Location: Pallagorio
(39.3000°N, 16.9000°E)
Time: 21:20:28
(UTC+00:00)

CZ-4 R/B - Pass Details

Date: 24 January 2021
Orbit: 531 x 599 km, 97.7° (Epoch: 03 March)

Event Time Altitude Azimuth Distance (km) Brightness Sun altitude
Rises 17:49:20 0° 178° (S) 2,793 5.0 -20.4°
Reaches altitude 10° 17:51:32 10° 183° (S) 1,888 4.2 -20.8°
Maximum altitude 17:55:31 51° 260° (W) 724 2.2 -21.6°
Drops below altitude 10° 17:59:28 10° 337° (NNW) 1,863 4.2 -22.3°
Sets 18:01:38 0° 343° (NNW) 2,751 5.0 -22.7°
